User: anonymous   Login
Location: Caltech
(34.1382°N, 118.1253°W)
Time: 16:56:43
(UTC-08:00)
Language:

Cosmos 1943 Rocket - Orbit

View from above orbital plane
View from above orbital plane
View from above satellite
View from above satellite

Ground track
Ground track

The orbit data is extracted from the following two-line orbital elements,

1 19120U 88039B   14325.86289477  .00000287  00000-0  15993-3 0  2098
2 19120 071.0142 147.4125 0021977 192.8270 267.3963 14.19061655373275
Epoch (UTC): 21 November 2014 20:42:34
Eccentricity: 0.0021977
inclination: 71.0142°
perigee height: 812 km
apogee height: 844 km
right ascension of ascending node: 147.4125°
argument of perigee: 192.8270°
revolutions per day: 14.19061655
mean anomaly at epoch: 267.3963°
orbit number at epoch: 37327

The dashed part of the orbit path shows where the satellite is in the earth's shadow,  

DLR